Find Starlink 11210

NORAD ID: 60116 Int'l Des: 2024-118 Owner: SPXS Country: US Constellation: starlink operational
又名: STARLINK-11210 [DTC] celestrak
LEOCIRCULAR

当前视图

正在加载3D地球...

About Starlink 11210

Starlink 11210 (NORAD 60116) is a starlink constellation satellite (v2 mini d2c) launched Jun 24, 2024 by SPXS of US. It operates in LEO, CIRCULAR orbit with a mass of 960.00 kg.

即将过境

Passes for default location (London). Set your location on the main map for personalized predictions.

高度历史

Loading altitude history...

两行轨道根数

1 60116U 24118D 26265.44257583 -.00001751 00000-0 -95937-5 0 9993
2 60116 53.1597 331.4928 0001007 65.3713 294.7409 15.69726711128897
Epoch: Sep 22, 2026 • Age: 16 hours

当前状态

高度 364.7 km
远地点 / 近地点 N/A
速度 7.69 km/s
星下点 -16.80°S, 117.88°E
发射日期 Jun 24, 2024
运行时间 2.2 years
类型 internet

技术详情

分类 Payload
质量 960.00 kg
干质量 910.00 kg
长度 0.30 m
跨度 29.00 m
形状 ? Box + pan
制造商 SPXS
平台类型 Starlink V2MD
阶段状态 In Orbit
所有者/国家 SPXS/US

Most Searched